H-2A R/B, 38341

Orbit data source: Space-Track

H-2A R/B, 38341 is space debris in SSO originally from a launch on Thu, 17 May 2012 UTC launched from the Tanegashima Space Center (TNSTA). Debris objects in space refer to the collection of defunct objects orbiting the Earth. Examples of debris include non-operational satellites, rocket bodies, and fragments generated from explosions, collisions, or faulty payload assembly.

Loading next visibility...
Identifier
38341, 2012-025E
Orbit
SSO
Country
Flag of JPJP / JPN
Related business
Manufacturer
MHI Tobishima
Mission
Spacecraft
Bus & Motor
H-2A STAGE 2, Unknown motor
Mass
4,000 kg wet, 4,000 kg dry
Launch date (UTC)
2012-05-17 (14 years ago)
Launch vehicle
Unknown
Launch site
Tanegashima Space Center (TNSTA)
Object type
Payload
Rocket body
Debris
Shape & HBR
Cyl, 5.0 m
Radar Cross Section
35.186 m², Large (>1 m²)

Expand to show TLE details & history
Last TLE update: 11 hours ago

TLE from 11 hours ago
0 H-2A R/B
1 38341U 12025E   26263.47528802  .00001426  00000-0  13065-3 0  9995
2 38341  98.4942 246.5569 0044444  36.2682 324.1536 14.96067118777335
Epoch: 2026-09-20T11:24Z
TLE epoch observation values (Epoch: 2026-09-20T11:24:24.884Z)
Latitude
0.00001°
Longitude
76.08428°
Altitude
557.065 km
Speed
7.597 km/s
True Right ascension
16h 26m 13s
True Declination
0° 00' 00"
Sunlit
Object was in daylight at epoch
Visualization orbit readout
Latitude
Unknown
Longitude
Unknown
Altitude
Unknown
Speed
Unknown
Apparent Right ascension
Unknown
Apparent Declination
Unknown
Sunlit
N/A
Visualization observer readout
Local Sidereal Time
15:46:28
Azimuth
Unknown
Elevation
Unknown
Doppler factor
Unknown
Orbital elements
Apogee altitude
607.017 km
Perigee altitude
545.202 km
Semi-major axis
6,954.247 km
Eccentricity
0.00444
Inclination
98.4942°
RAAN
246.5569°
Arg. of periapsis
36.2682°
True anomaly
323.854°
Mean anomaly
324.1536°
Eccentric anomaly
324.00394°
Mean motion
3.74255 °/min
Orbital period
96.19 mins
BSTAR
0.00013065
Loading maneuver chart data...
Computing Atmospheric mass density...
Loading historical data...
Loading historical data...
Loading historical data...
Loading historical data...
Loading historical data...
Loading historical data...
Loading historical data...

Documentation

Showing up to 5 results
|